FW7308 Weather Reports


time (UTC)temp
C
wind
direction
speed
KPH
gust
KPH
rain 1hr
cm
rain 24hr
cm
rain mn
cm
humidity
%
barometer
mb
20260504214121 20 319 4.8 8.0 0.00 0.00 0.00 40 1008.0
20260504213219 20 342 8.0 11.3 0.00 0.00 0.00 41 1008.0
20260504212121 20 331 6.4 11.3 0.00 0.00 0.00 41 1008.4
20260504211619 20 355 14.5 22.5 0.00 0.00 0.00 41 1008.4
20260504211118 20 306 3.2 4.8 0.00 0.00 0.00 41 1008.4
20260504210619 19 309 8.0 16.1 0.00 0.00 0.00 42 1008.6
20260504210118 20 321 6.4 14.5 0.00 0.00 0.00 42 1008.6
20260504205618 20 12 1.6 1.6 0.00 0.00 0.00 41 1008.4
20260504205117 19 312 12.9 20.9 0.00 0.00 0.00 42 1008.4
20260504204616 18 299 8.0 11.3 0.00 0.00 0.00 43 1008.7
20260504204117 19 323 9.7 16.1 0.00 0.00 0.00 42 1008.4
20260504203616 19 325 6.4 8.0 0.00 0.00 0.00 43 1008.7
20260504203120 19 159 12.9 22.5 0.00 0.00 0.00 42 1008.7
20260504202648 19 8 6.4 12.9 0.00 0.00 0.00 43 1008.4
20260504202149 18 330 8.0 11.3 0.00 0.00 0.00 42 1008.4
20260504201645 19 292 6.4 11.3 0.00 0.00 0.00 42 1008.6
20260504201144 18 303 9.7 11.3 0.00 0.00 0.00 43 1008.7
20260504200643 18 357 3.2 3.2 0.00 0.00 0.00 44 1008.7
20260504200145 19 350 4.8 11.3 0.00 0.00 0.00 42 1008.6
20260504195644 18 319 4.8 8.0 0.00 0.00 0.00 44 1008.7
20260504195143 20 2 8.0 9.7 0.00 0.00 0.00 42 1008.7
20260504194144 20 355 9.7 12.9 0.00 0.00 0.00 42 1008.6
20260504193142 18 292 8.0 16.1 0.00 0.00 0.00 42 1008.7
20260504192641 18 339 6.4 12.9 0.00 0.00 0.00 44 1008.7
20260504192142 18 335 6.4 14.5 0.00 0.00 0.00 43 1009.1
20260504191642 18 3 3.2 4.8 0.00 0.00 0.00 44 1008.7
20260504191141 18 302 8.0 16.1 0.00 0.00 0.00 43 1009.1
20260504190640 18 301 4.8 9.7 0.00 0.00 0.00 43 1008.7
20260504185640 18 304 12.9 22.5 0.00 0.00 0.00 43 1008.7
20260504185140 18 238 6.4 9.7 0.00 0.00 0.00 44 1008.7
20260504184639 17 298 6.4 11.3 0.00 0.00 0.00 44 1008.7
20260504184238 17 301 6.4 9.7 0.00 0.00 0.00 44 1008.7
20260504183639 18 331 11.3 20.9 0.00 0.00 0.00 43 1008.9
20260504183138 18 248 8.0 11.3 0.00 0.00 0.00 44 1008.7
20260504182637 18 308 4.8 8.0 0.00 0.00 0.00 44 1008.7
20260504182138 18 327 8.0 17.7 0.00 0.00 0.00 43 1009.1
20260504181638 18 355 6.4 11.3 0.00 0.00 0.00 44 1009.1
20260504181137 17 42 4.8 8.0 0.00 0.00 0.00 45 1008.7
20260504180701 17 338 6.4 9.7 0.00 0.00 0.00 44 1008.9
20260504180135 17 310 11.3 22.5 0.00 0.00 0.00 45 1009.1
20260504175638 17 336 14.5 20.9 0.00 0.00 0.00 45 1009.1
20260504175136 17 357 6.4 11.3 0.00 0.00 0.00 45 1009.1
20260504174635 17 337 3.2 4.8 0.00 0.00 0.00 45 1009.1
20260504173637 18 326 8.0 12.9 0.00 0.00 0.00 44 1009.1
20260504173134 18 335 8.0 12.9 0.00 0.00 0.00 42 1008.9
20260504172634 18 307 9.7 17.7 0.00 0.00 0.00 44 1009.1
20260504172135 18 339 8.0 16.1 0.00 0.00 0.00 43 1009.1
20260504171634 18 161 9.7 16.1 0.00 0.00 0.00 43 1009.3
20260504171133 18 210 11.3 17.7 0.00 0.00 0.00 43 1008.7
20260504170632 17 310 4.8 12.9 0.00 0.00 0.00 44 1009.1
20260504170131 18 335 17.7 25.7 0.00 0.00 0.00 43 1009.4
20260504160128 16 121 9.7 12.9 0.00 0.00 0.00 47 1009.8
20260504151126 17 290 4.8 9.7 0.00 0.00 0.00 45 1009.8
20260504150625 16 230 8.0 12.9 0.00 0.00 0.00 46 1009.8
20260504150224 16 326 4.8 4.8 0.00 0.00 0.00 45 1009.8
20260504141119 15 273 11.3 25.7 0.00 0.00 0.00 48 1010.3
20260504140619 16 257 8.0 14.5 0.00 0.00 0.00 45 1009.8
20260504140120 16 224 8.0 11.3 0.00 0.00 0.00 45 1009.8
20260504130745 11 301 3.2 4.8 0.00 0.00 0.00 61 1010.3
20260504130144 11 166 11.3 17.7 0.00 0.00 0.00 61 1010.5
20260504120140 8 171 4.8 8.0 0.00 0.00 0.00 71 1010.9
20260504110637 6 344 1.6 1.6 0.00 0.00 0.00 74 1010.5
20260504110136 6 330 1.6 3.2 0.00 0.00 0.00 74 1010.9
20260504100134 5 332 0.0 1.6 0.00 0.00 0.00 81 1010.5
20260504081625 7 324 1.6 3.2 0.00 0.00 0.00 82 1010.7
20260504081127 7 332 1.6 3.2 0.00 0.00 0.00 80 1010.9
20260504080626 7 312 1.6 3.2 0.00 0.00 0.00 80 1010.9
20260504080125 7 306 4.8 9.7 0.00 0.00 0.00 78 1010.9
20260504070121 6 0.0 0.0 0.00 0.00 0.00 79 1010.5
20260504045744 5 0.0 0.0 0.00 0.00 0.00 67 1010.9
20260504045142 5 317 1.6 3.2 0.00 0.00 0.00 65 1010.9
20260504044641 5 343 0.0 1.6 0.00 0.00 0.00 67 1011.2
20260504034138 3 332 1.6 3.2 0.00 0.00 0.00 68 1010.9
20260504033638 3 329 3.2 3.2 0.00 0.00 0.00 70 1010.9
20260504033238 3 324 3.2 3.2 0.00 0.00 0.00 70 1010.9
20260504032736 3 328 3.2 3.2 0.00 0.00 0.00 71 1010.9
20260504032137 2 332 1.6 1.6 0.00 0.00 0.00 71 1010.9
20260504031636 2 329 1.6 1.6 0.00 0.00 0.00 74 1010.9
20260504031135 2 325 1.6 1.6 0.00 0.00 0.00 72 1011.0
20260504030635 2 328 1.6 1.6 0.00 0.00 0.00 73 1010.9
20260504030141 2 332 1.6 1.6 0.00 0.00 0.00 75 1010.9
20260504025635 2 323 1.6 3.2 0.00 0.00 0.00 74 1011.0
20260504025234 2 332 1.6 3.2 0.00 0.00 0.00 75 1010.9
20260504024734 1 324 3.2 3.2 0.00 0.00 0.00 78 1011.2
20260504024134 1 321 3.2 3.2 0.00 0.00 0.00 77 1010.9
20260504023634 2 324 3.2 3.2 0.00 0.00 0.00 77 1011.2
20260504023133 1 323 3.2 3.2 0.00 0.00 0.00 77 1011.2
20260504022632 2 321 3.2 3.2 0.00 0.00 0.00 77 1011.2
20260504022132 1 319 3.2 3.2 0.00 0.00 0.00 76 1011.2
20260504021734 1 322 3.2 3.2 0.00 0.00 0.00 76 1011.2
20260504021232 1 321 3.2 3.2 0.00 0.00 0.00 77 1011.2
20260504020631 2 324 3.2 3.2 0.00 0.00 0.00 77 1010.9
20260504020131 2 331 3.2 4.8 0.00 0.00 0.00 77 1011.2
20260504015230 2 326 3.2 3.2 0.00 0.00 0.00 77 1011.2
20260504014632 2 318 3.2 3.2 0.00 0.00 0.00 76 1010.9
20260504014129 2 324 3.2 3.2 0.00 0.00 0.00 76 1010.9
20260504013630 2 328 3.2 3.2 0.00 0.00 0.00 76 1011.0
20260504012628 2 321 3.2 3.2 0.00 0.00 0.00 75 1010.9
20260504012129 2 324 3.2 3.2 0.00 0.00 0.00 75 1010.9
20260504011628 2 323 3.2 3.2 0.00 0.00 0.00 75 1010.9
20260504011127 2 326 3.2 3.2 0.00 0.00 0.00 74 1010.5
20260504010627 2 326 3.2 3.2 0.00 0.00 0.00 74 1010.5
20260504010126 2 326 3.2 3.2 0.00 0.00 0.00 74 1010.5
20260504005625 2 324 3.2 3.2 0.00 0.00 0.00 73 1010.5
20260504005126 2 328 3.2 3.2 0.00 0.00 0.00 75 1010.3
20260504004625 3 325 3.2 3.2 0.00 0.00 0.00 74 1010.5
20260504004124 3 324 3.2 3.2 0.00 0.00 0.00 72 1010.1
20260504003624 3 325 3.2 3.2 0.00 0.00 0.00 73 1010.5
20260504003127 3 319 3.2 3.2 0.00 0.00 0.00 72 1010.1
20260504002724 3 324 3.2 3.2 0.00 0.00 0.00 71 1010.1
20260504002124 3 323 3.2 3.2 0.00 0.00 0.00 73 1010.1
20260504001623 4 324 3.2 3.2 0.00 0.00 0.00 70 1010.1
20260504001124 4 326 1.6 3.2 0.00 0.00 0.00 68 1010.1
20260504000623 5 324 1.6 1.6 0.00 0.00 0.00 67 1009.8
20260504000222 5 330 1.6 3.2 0.00 0.00 0.00 65 1009.8
20260503235621 5 325 1.6 3.2 0.00 0.00 0.00 64 1009.8
20260503235123 6 334 1.6 1.6 0.00 0.00 0.00 61 1009.8
20260503234622 6 338 1.6 3.2 0.00 0.00 0.00 61 1009.8
20260503234122 6 335 0.0 1.6 0.00 0.00 0.00 61 1009.8
20260503233620 7 337 0.0 1.6 0.00 0.00 0.00 55 1009.8
20260503233119 7 340 0.0 1.6 0.00 0.00 0.00 55 1009.8
20260503232620 7 338 1.6 3.2 0.00 0.00 0.00 53 1009.8
20260503232120 7 334 1.6 1.6 0.00 0.00 0.00 54 1009.8
20260503231619 8 338 3.2 4.8 0.00 0.00 0.00 50 1009.8
20260503231120 8 325 0.0 1.6 0.00 0.00 0.00 48 1009.4
20260503230619 8 332 1.6 3.2 0.00 0.00 0.00 48 1009.4
20260503230118 8 342 4.8 9.7 0.00 0.00 0.00 48 1009.4
20260503225719 8 342 3.2 4.8 0.00 0.00 0.00 48 1009.6
20260503225119 8 319 3.2 8.0 0.00 0.00 0.00 47 1009.4
20260503224618 8 324 3.2 3.2 0.00 0.00 0.00 48 1009.4
20260503224117 8 297 6.4 9.7 0.00 0.00 0.00 47 1009.6
20260503223618 8 289 6.4 12.9 0.00 0.00 0.00 48 1009.4
20260503223117 8 310 6.4 12.9 0.00 0.00 0.00 49 1009.8
20260503222616 8 330 11.3 14.5 0.00 0.00 0.00 48 1009.4
20260503222146 9 327 3.2 3.2 0.00 0.00 0.00 48 1009.4
20260503221645 9 317 6.4 8.0 0.00 0.00 0.00 48 1009.4
20260503221144 9 262 8.0 11.3 0.00 0.00 0.00 48 1009.6
20260503220645 9 346 4.8 12.9 0.00 0.00 0.00 47 1009.6
20260503220144 10 322 3.2 8.0 0.00 0.00 0.00 47 1009.4
20260503215643 10 323 1.6 1.6 0.00 0.00 0.00 48 1009.4
20260503215145 8 337 1.6 1.6 0.00 0.00 0.00 48 1009.4
20260503214644 8 303 4.8 9.7 0.00 0.00 0.00 49 1009.4